This demonstration page uses our WeatherBlox Daily Observations layout. Learn more.

Left ArrowRight Arrow

30.00354, -91.81873

Hourly Observations for August 21, 2022

Temp ( °F °C ) Dew Point ( °F °C ) Humidity (%) Winds ( mph kmh ) Pressure ( in mb ) Visibility ( mi km ) Precip ( " mm )
12:53 am 00:53 Clear 76 24.4 73 22.8 91 91 SSE 5 7 30.04 1017 10 16 0.00 0.00
1:53 am 01:53 Clear 77 25 74 23.3 90 90 Calm 30.04 1017 10 16 0.00 0.00
2:53 am 02:53 Mostly Clear 77 25 74 23.3 90 90 E 3 6 30.04 1017 10 16 0.00 0.00
3:53 am 03:53 Clear 76 24.4 74 23.3 94 94 E 3 6 30.02 1017 10 16 0.00 0.00
4:53 am 04:53 Mostly Cloudy 77 25 74 23.3 90 90 ENE 3 6 30.03 1017 10 16 0.00 0.00
5:08 am 05:08 Partly Cloudy 76 24.4 74 23.3 94 94 Calm 30.03 1017 10 16 0.00 0.00
5:53 am 05:53 Clear 76 24.4 74 23.3 94 94 Calm 30.05 1018 10 16 0.00 0.00
6:53 am 06:53 Sunny 77 25 74 23.3 90 90 E 3 6 30.05 1018 10 16 0.00 0.00
7:53 am 07:53 Mostly Sunny 78 25.6 75 23.9 90 90 Calm 30.08 1019 10 16 0.00 0.00
8:53 am 08:53 Mostly Sunny 82 27.8 77 25 85 85 SE 7 11 30.09 1019 10 16 0.00 0.00
9:53 am 09:53 Partly Cloudy 84 28.9 72 22.2 67 67 S 12 19 30.10 1019 10 16 0.00 0.00
10:53 am 10:53 Sunny 84 28.9 71 21.7 65 65 SSW 8 13 30.10 1019 10 16 0.00 0.00
11:53 am 11:53 Sunny 88 31.1 75 23.9 66 66 S 8 13 30.08 1019 10 16 0.00 0.00
12:53 pm 12:53 Mostly Sunny 90 32.2 77 25 66 66 S 8 13 30.06 1018 10 16 0.00 0.00
1:53 pm 13:53 Partly Cloudy 91 32.8 77 25 64 64 SW 9 15 30.03 1017 10 16 0.00 0.00
2:53 pm 14:53 Sunny 90 32.2 75 23.9 62 62 SSW 12 19 30.01 1016 10 16 0.00 0.00
3:53 pm 15:53 Sunny 89 31.7 73 22.8 59 59 SSW 13 20 30.00 1016 10 16 0.00 0.00
4:53 pm 16:53 Sunny 90 32.2 73 22.8 58 58 SSW 9 15 30.00 1016 10 16 0.00 0.00
5:53 pm 17:53 Mostly Sunny 88 31.1 76 24.4 68 68 SSW 10 17 29.99 1016 10 16 0.00 0.00
6:53 pm 18:53 Sunny 86 30 74 23.3 67 67 S 9 15 30.00 1016 10 16 0.00 0.00
7:53 pm 19:53 Clear 83 28.3 76 24.4 79 79 S 5 7 30.01 1016 10 16 0.00 0.00
8:53 pm 20:53 Clear 82 27.8 77 25 85 85 E 5 7 30.03 1017 10 16 0.00 0.00
9:53 pm 21:53 Clear 79 26.1 74 23.3 85 85 E 7 11 30.03 1017 10 16 0.00 0.00
10:53 pm 22:53 Clear 78 25.6 74 23.3 87 87 E 5 7 30.03 1017 10 16 0.00 0.00
11:53 pm 23:53 Clear 77 25 74 23.3 90 90 ESE 6 9 30.01 1016 10 16 0.00 0.00

Powered by AerisWeather